Simultaneous Nadir Overpasses (SNOs) Predictions

Prediction of SNOs between GOES-15 and METOP-A Satellite Orbit:

Table of predicted SNOs for the next 14.0 days since TLE Epoch: 7/24/2021
Index Date Time (GOES-15) GOES-15 Lat,Lon METOP-A Lat,Lon Distance(km) Time Diff (sec)
1 07/24/2021 04:50:14 0.16,-127.63 -0.65,-131.27 414.46 80
2 07/25/2021 04:26:54 0.17,-127.66 0.48,-126.30 155.43 80
3 07/26/2021 16:45:45 -0.16,-127.70 0.52,-130.90 363.76 80
4 07/27/2021 16:27:45 -0.18,-127.74 -0.56,-125.92 207.23 80
5 07/29/2021 04:46:45 0.16,-127.81 -0.43,-130.56 313.07 80
6 07/30/2021 04:23:25 0.18,-127.84 0.64,-125.58 256.81 80
7 07/31/2021 16:42:16 -0.16,-127.87 0.35,-130.19 263.45 80
8 08/01/2021 16:24:17 -0.17,-127.91 -0.79,-125.22 307.12 80
9 08/03/2021 04:43:16 0.16,-127.98 -0.26,-129.85 213.23 80
10 08/04/2021 04:19:56 0.17,-128.00 0.88,-124.88 355.86 80
11 08/05/2021 16:38:47 -0.16,-128.01 0.16,-129.47 166.40 80
12 08/06/2021 16:20:47 -0.17,-128.04 -0.98,-124.50 403.28 80
